Regional Weather Roundup
Issued by NWS Raleigh/Durham, NC

Home | Current Version | Previous Version | Text Only | Print | Product List | Glossary On
Versions: 1 2 3 4 5 6 7 8 9 10 11 12 13 14 15 16 17 18 19 20 21 22 23 24 25 26 27 28 29 30 31 32 33 34 35 36 37 38 39 40 41 42 43 44 45 46 47 48 49 50
000
ASUS42 KRAH 260610
RWRRAH
NORTH CAROLINA WEATHER ROUNDUP
NATIONAL WEATHER SERVICE RALEIGH NC
100 AM EST MON JAN 26 2015

NOTE: "FAIR" INDICATES FEW OR NO CLOUDS BELOW 12,000 FEET WITH NO
SIGNIFICANT WEATHER AND/OR OBSTRUCTIONS TO VISIBILITY.

NCZ001-053-055-056-065-067-260700-
WESTERN NORTH CAROLINA

CITY           SKY/WX    TMP DP  RH WIND       PRES   REMARKS
ASHEVILLE      CLEAR     37  30  75 NW3       29.67F
JEFFERSON      NOT AVBL
MORGANTON      PTCLDY    33  30  91 CALM      29.72F
HICKORY        PTCLDY    44  29  55 S6        29.67F
RUTHERFORDTON  CLEAR     42  31  64 S5        29.69F
MOUNT AIRY     CLOUDY    45  33  63 CALM      29.71F
BOONE          PTCLDY    37  28  70 N3        29.65F
$$

NCZ021-022-025-041-071-084-088-260700-
CENTRAL NORTH CAROLINA

CITY           SKY/WX    TMP DP  RH WIND       PRES   REMARKS
CHARLOTTE      CLOUDY    43  31  62 S7        29.71F
GREENSBORO     CLOUDY    43  34  70 S5        29.71F
WINSTON-SALEM  CLOUDY    44  33  65 SE3       29.71F
RALEIGH-DURHAM MOCLDY    41  33  73 SE5       29.76F
FORT BRAGG     PTCLDY    40  35  83 S3        29.76F
FAYETTEVILLE   PTCLDY    38  35  89 CALM      29.77F
BURLINGTON     CLOUDY    44  32  62 SW6       29.73F
LAURINBURG     CLEAR     42  37  82 S8        29.77F
$$

NCZ011-015-027-028-043-044-047-080-103-260700-
NORTHEASTERN NORTH CAROLINA

CITY           SKY/WX    TMP DP  RH WIND       PRES   REMARKS
ROCKY MT-WILSO MOCLDY    40  35  83 VRB3      29.80F
GREENVILLE     MOCLDY    37  36  93 E3        29.83F
WASHINGTON     MOCLDY    34  33  96 CALM      29.82F
ELIZABETH CITY PTCLDY    36  33  89 CALM      29.86F
MANTEO         CLEAR     34  34 100 CALM      29.85F
CAPE HATTERAS  CLEAR     45  41  86 NE7       29.84F
$$

NCZ078-087-090-091-093-098-101-260700-
SOUTHEASTERN NORTH CAROLINA

CITY           SKY/WX    TMP DP  RH WIND       PRES   REMARKS
LUMBERTON      CLEAR     43  37  79 S3        29.77F
GOLDSBORO      MOCLDY    40  40  99 SE2       29.78F
KINSTON        PTCLDY    38  36  94 CALM      29.82F
KENANSVILLE    CLOUDY    38  37  95 CALM      29.82F
NEW BERN       MOCLDY    40  36  86 CALM      29.82F
CHERRY POINT   MOCLDY    40  37  89 CALM      29.83F
BEAUFORT       MOCLDY    41  40  96 CALM      29.82F
JACKSONVILLE   CLOUDY    40  39  97 CALM      29.81F
WILMINGTON     PTCLDY    40  39  97 CALM      29.82F
$$




USA.gov is the U.S. government's official web portal to all federal, state and local government web resources and services.